www.pogodaiklimat.ru

Погода и климат >> Архив погоды >> Австралия >> Coober Pedy Airport


ПОГОДА в Coober Pedy Airport

  • Прогноз погоды в Coober Pedy Airport
  • Монитор погоды в Coober Pedy Airport
  • Климат города

АРХИВ ПОГОДЫ в Coober Pedy Airport

Время (UTC), дата Ветер
(напр.,м/с)
 
Видим.   Явления Облачность Т
(С)
Тd
(С)
f
(%)
Тe
(С)
Тes
(С)
Комфортность P
(гПа)
Po
(гПа)
Тmin
(С)
Tmax
(С)
R
(мм)
R24
(мм)
S
(см)
10 11.12 В 4 н/о н/о +33.1 -0.1 12 +30 +30 жарко 1012.9 987.4
11 11.12 В 4 н/о н/о +30.5 0.0 14 +28 +28 жарко 1013.0 987.5
12 11.12 В 4 н/о н/о +28.8 -0.4 15 +26 +26 жарко 1013.3 987.7
14 11.12 В 4 н/о н/о +26.8 +0.5 18 +25 +25 комфорт 1013.1 987.6
13 11.12 В 4 н/о н/о +28.7 +0.4 16 +26 +26 жарко 1013.4 987.8
15 11.12 В 4 н/о н/о +26.3 +0.1 18 +24 +24 комфорт 1012.6 987.1
16 11.12 В 4 н/о н/о +25.6 +0.3 19 +24 +24 комфорт 1012.0 986.5
17 11.12 С 4 н/о н/о +23.3 +1.0 23 +22 +22 комфорт 1011.7 986.2
18 11.12 СВ 4 н/о н/о +22.6 +0.4 23 +22 +22 комфорт 1011.5 986.0
20 11.12 В 7 н/о н/о +25.0 -0.2 19 +23 +23 комфорт 1012.2 986.7
19 11.12 СВ 4 н/о н/о +21.4 0.0 24 +21 +21 комфорт 1011.7 986.2
21 11.12 В 6 н/о н/о +26.7 -0.3 17 +25 +25 комфорт 1013.0 987.5
22 11.12 В 8 н/о н/о +29.1 -1.1 14 +26 +26 жарко 1013.8 988.2
23 11.12 СВ 7 н/о н/о +31.7 -0.1 13 +29 +29 жарко 1014.0 988.4
00 12.12 СВ 6 н/о н/о +33.8 +0.5 12 +30 +30 жарко 1013.5 987.9
02 12.12 СВ 3 н/о н/о +36.4 -0.1 10 +33 +33 жарко 1011.5 986.0
01 12.12 СВ 6 н/о н/о +36.1 -0.3 10 +32 +32 жарко 1012.6 987.1
03 12.12 С 3 н/о н/о +37.7 +0.9 10 +34 +34 очень
жарко
1010.6 985.1
04 12.12 СЗ 5 н/о н/о +38.9 +0.3 9 +35 +35 очень
жарко
1009.6 984.1
05 12.12 СЗ 7 н/о н/о +38.7 -1.4 8 +35 +35 очень
жарко
1008.8 983.4
06 12.12 СЗ 4 н/о н/о +38.4 -1.6 8 +34 +34 очень
жарко
1008.2 982.8
08 12.12 ЮЗ 1 н/о н/о +38.4 -1.6 8 +34 +34 очень
жарко
1007.0 981.6
07 12.12 З 4 н/о н/о +38.8 -1.3 8 +35 +35 очень
жарко
1007.5 982.1
09 12.12 СЗ 3 н/о н/о +37.5 -2.3 8 +33 +33 жарко 1007.1 981.7
10 12.12 С 3 н/о н/о +35.2 -2.4 9 +31 +31 жарко 1007.2 981.8
11 12.12 С 4 н/о н/о +32.2 -2.0 11 +29 +29 жарко 1007.4 982.0
12 12.12 СВ 4 н/о н/о +31.3 -2.6 11 +28 +28 жарко 1007.4 982.0
14 12.12 СВ 4 н/о н/о +28.5 -2.6 13 +26 +26 жарко 1007.1 981.7
13 12.12 СВ 4 н/о н/о +29.3 -1.9 13 +26 +26 жарко 1007.3 981.9
15 12.12 СВ 4 н/о н/о +27.1 -3.7 13 +24 +24 комфорт 1006.2 980.8
16 12.12 СВ 6 н/о н/о +27.4 -3.4 13 +25 +25 комфорт 1005.4 980.0
17 12.12 СВ 5 н/о н/о +26.1 -3.5 14 +24 +24 комфорт 1004.8 979.5
18 12.12 СВ 5 н/о н/о +26.4 -3.2 14 +24 +24 комфорт 1004.7 979.4
20 12.12 С 5 н/о н/о +26.9 -1.9 15 +25 +25 комфорт 1005.2 979.9
19 12.12 С 5 н/о н/о +26.4 -3.2 14 +24 +24 комфорт 1004.7 979.4
21 12.12 С 5 н/о н/о +27.9 -0.2 16 +26 +26 жарко 1005.8 980.4
22 12.12 СЗ 5 н/о н/о +30.7 +0.2 14 +28 +28 жарко 1006.6 981.2
23 12.12 З 8 н/о н/о +34.7 -0.1 11 +31 +31 жарко 1007.0 981.6
00 13.12 ЮЗ 8 н/о н/о +33.4 +2.3 14 +30 +30 жарко 1007.0 981.6
02 13.12 ЮЗ 6 н/о н/о +35.7 +9.3 20 +34 +34 очень
жарко
1006.5 981.1
01 13.12 Ю 7 н/о н/о +34.7 +9.2 21 +33 +33 жарко 1007.0 981.6
03 13.12 З 3 н/о н/о +37.9 +6.8 15 +35 +35 очень
жарко
1005.7 980.3
04 13.12 З 4 н/о н/о +38.4 +7.2 15 +36 +36 очень
жарко
1005.0 979.7
05 13.12 З 12 н/о н/о +35.7 +11.4 23 +35 +35 очень
жарко
1004.8 979.5
06 13.12 З 8 н/о н/о +36.3 +9.8 20 +35 +35 очень
жарко
1004.6 979.3
08 13.12 ЮЗ 5 н/о н/о +35.3 +10.4 22 +34 +34 очень
жарко
1004.4 979.1
07 13.12 ЮЗ 6 н/о н/о +35.7 +9.3 20 +34 +34 очень
жарко
1004.8 979.5
09 13.12 Ю 4 н/о н/о +35.4 +9.7 21 +34 +34 очень
жарко
1003.9 978.6
10 13.12 ЮЗ 6 н/о н/о +34.3 +10.2 23 +33 +33 жарко 1004.6 979.3
11 13.12 Ю 15 н/о н/о +28.2 +10.9 34 +29 +29 жарко 1005.4 980.0
12 13.12 З 15 н/о н/о +26.0 +4.8 26 +28 +28 жарко 1007.4 982.0
14 13.12 З 13 н/о н/о +24.6 +0.2 20 +23 +23 комфорт 1007.4 982.0
13 13.12 З 14 н/о н/о +26.0 +13.2 45 +28 +28 жарко 1007.4 982.0
15 13.12 ЮЗ 10 н/о н/о +23.8 +0.8 22 +23 +23 комфорт 1007.0 981.6
16 13.12 ЮЗ 6 н/о н/о +24.1 -0.2 20 +23 +23 комфорт 1006.0 980.6
17 13.12 ЮЗ 5 н/о н/о +21.9 +3.6 30 +22 +22 комфорт 1007.6 982.2
18 13.12 ЮЗ 3 н/о н/о +22.2 +3.3 29 +22 +22 комфорт 1007.7 982.3
20 13.12 ЮЗ 8 н/о н/о +21.5 +1.2 26 +21 +21 комфорт 1010.0 984.5
19 13.12 ЮЗ 3 н/о н/о +22.0 +4.1 31 +22 +22 комфорт 1008.0 982.6
21 13.12 Ю 8 н/о н/о +20.0 +8.7 48 +21 +21 комфорт 1010.7 985.2
22 13.12 ЮЗ 8 н/о н/о +20.2 +1.1 28 +20 +20 1011.2 985.7
23 13.12 ЮЗ 9 н/о н/о +20.7 +0.5 26 +20 +20 1011.4 985.9
00 14.12 ЮЗ 9 н/о н/о +22.8 +0.6 23 +22 +22 комфорт 1011.4 985.9
02 14.12 Ю 8 н/о н/о +26.3 +0.1 18 +24 +24 комфорт 1010.9 985.4
01 14.12 Ю 8 н/о н/о +25.0 +0.5 20 +24 +24 комфорт 1011.2 985.7
03 14.12 ЮЗ 6 н/о н/о +27.2 -0.8 16 +25 +25 комфорт 1010.6 985.1
04 14.12 Ю 6 н/о н/о +29.0 -0.2 15 +26 +26 жарко 1009.8 984.3
05 14.12 Ю 6 н/о н/о +29.4 -0.9 14 +27 +27 жарко 1009.2 983.8
06 14.12 Ю 8 н/о н/о +30.1 -1.3 13 +27 +27 жарко 1008.9 983.5
08 14.12 ЮЗ 7 н/о н/о +30.1 -1.3 13 +27 +27 жарко 1008.7 983.3
07 14.12 ЮЗ 6 н/о н/о +31.0 -0.6 13 +28 +28 жарко 1008.7 983.3
09 14.12 Ю 6 н/о н/о +29.7 -1.6 13 +27 +27 жарко 1009.1 983.7
10 14.12 Ю 8 н/о н/о +27.8 -2.1 14 +25 +25 комфорт 1009.9 984.4
11 14.12 Ю 7 н/о н/о +26.9 -2.8 14 +24 +24 комфорт 1010.4 984.9
12 14.12 Ю 7 н/о н/о +25.8 -2.8 15 +24 +24 комфорт 1010.8 985.3
14 14.12 Ю 8 н/о н/о +24.2 -4.0 15 +22 +22 комфорт 1011.2 985.7
13 14.12 Ю 7 н/о н/о +25.1 -3.3 15 +23 +23 комфорт 1011.2 985.7
15 14.12 Ю 6 н/о н/о +23.5 -4.6 15 +22 +22 комфорт 1010.7 985.2
16 14.12 Ю 7 н/о н/о +22.8 -4.3 16 +21 +21 комфорт 1010.3 984.8
17 14.12 Ю 8 н/о н/о +20.6 -6.1 16 +20 +20 1010.2 984.7
18 14.12 Ю 8 н/о н/о +19.9 -6.6 16 +19 +19 1010.3 984.8
20 14.12 Ю 6 н/о н/о +17.9 -7.5 17 +17 +17 1011.5 986.0
19 14.12 Ю 6 н/о н/о +18.7 -7.6 16 +18 +18 1010.8 985.3
21 14.12 Ю 6 н/о н/о +18.5 -7.0 17 +18 +18 1012.1 986.6
22 14.12 Ю 6 н/о н/о +20.1 -6.5 16 +19 +19 1012.6 987.1
23 14.12 Ю 6 н/о н/о +22.4 -6.4 14 +21 +21 комфорт 1012.8 987.3
00 15.12 Ю 5 н/о н/о +24.6 +0.6 21 +22 +22 комфорт 1012.7 987.2
02 15.12 Ю 4 н/о н/о +28.8 +9.0 29 +29 +29 жарко 1012.0 986.5
01 15.12 Ю 5 н/о н/о +26.3 +8.8 33 +27 +27 жарко 1012.5 987.0
03 15.12 Ю 5 н/о н/о +29.3 +8.4 27 +29 +29 жарко 1010.9 985.4
04 15.12 ЮЗ 3 н/о н/о +30.2 -6.1 9 +26 +26 жарко 1010.2 984.7
05 15.12 З 4 н/о н/о +31.8 -4.9 9 +28 +28 жарко 1009.6 984.1
06 15.12 ЮЗ 4 н/о н/о +32.1 +8.4 23 +31 +31 жарко 1008.6 983.2
08 15.12 ЮЗ 4 н/о н/о +32.4 +6.6 20 +31 +31 жарко 1008.3 982.9
07 15.12 З 6 н/о н/о +32.7 +6.8 20 +31 +31 жарко 1008.2 982.8
09 15.12 ЮЗ 6 н/о н/о +31.8 +4.6 18 +30 +30 жарко 1009.0 983.6
10 15.12 ЮЗ 5 н/о н/о +30.4 +4.2 19 +28 +28 жарко 1009.7 984.2
11 15.12 Ю 5 н/о н/о +29.2 +3.2 19 +27 +27 жарко 1010.3 984.8
12 15.12 Ю 4 н/о н/о +27.6 +2.6 20 +26 +26 жарко 1010.7 985.2
14 15.12 ЮВ 5 н/о н/о +26.5 +3.1 22 +25 +25 комфорт 1010.5 985.0
13 15.12 Ю 5 н/о н/о +26.5 +3.7 23 +25 +25 комфорт 1010.7 985.2
15 15.12 В 4 н/о н/о +24.1 +3.4 26 +23 +23 комфорт 1010.3 984.8
16 15.12 ЮВ 5 н/о н/о +24.2 +2.4 24 +23 +23 комфорт 1010.0 984.5
17 15.12 ЮВ 5 н/о н/о +23.4 +1.1 23 +22 +22 комфорт 1010.0 984.5
18 15.12 ЮВ 5 н/о н/о +22.2 +1.3 25 +22 +22 комфорт 1010.2 984.7
20 15.12 ЮВ 5 н/о н/о +20.9 +4.5 34 +22 +22 комфорт 1011.0 985.5
19 15.12 ЮВ 6 н/о н/о +21.6 +3.3 30 +22 +22 комфорт 1010.5 985.0
21 15.12 ЮВ 6 н/о н/о +21.9 +6.6 37 +23 +23 комфорт 1011.7 986.2
22 15.12 ЮВ 6 н/о н/о +24.3 +7.4 34 +25 +25 комфорт 1012.5 987.0
23 15.12 ЮВ 6 н/о н/о +26.9 +6.9 28 +26 +26 жарко 1013.3 987.7
00 16.12 В 4 н/о н/о +29.6 +5.6 22 +28 +28 жарко 1013.4 987.8
02 16.12 ЮВ 3 н/о н/о +33.1 +3.9 16 +30 +30 жарко 1012.3 986.8
01 16.12 В 5 н/о н/о +30.9 +4.6 19 +29 +29 жарко 1012.7 987.2
03 16.12 ЮЗ 3 н/о н/о +35.0 +3.5 14 +32 +32 жарко 1011.2 985.7
04 16.12 В 4 н/о н/о +35.2 +3.7 14 +32 +32 жарко 1010.1 984.6
05 16.12 В 2 н/о н/о +36.8 +4.9 14 +34 +34 очень
жарко
1009.2 983.8
06 16.12 С 3 н/о н/о +36.5 +6.6 16 +34 +34 очень
жарко
1008.3 982.9
08 16.12 ЮЗ 3 н/о н/о +37.4 +7.3 16 +35 +35 очень
жарко
1007.6 982.2
07 16.12 С 2 н/о н/о +37.3 +7.3 16 +35 +35 очень
жарко
1007.8 982.4
09 16.12 Ю 2 н/о н/о +37.7 +6.6 15 +35 +35 очень
жарко
1007.8 982.4
10 16.12 штиль 0 н/о н/о +35.6 +7.6 18 +34 +34 очень
жарко
1008.4 983.0
11 16.12 В 4 н/о н/о +33.4 +7.4 20 +32 +32 жарко 1008.5 983.1
12 16.12 В 5 н/о н/о +32.6 +5.2 18 +30 +30 жарко 1008.6 983.2
14 16.12 В 7 н/о н/о +30.9 +3.0 17 +28 +28 жарко 1008.6 983.2
13 16.12 В 7 н/о н/о +31.7 +4.5 18 +29 +29 жарко 1008.8 983.4
15 16.12 В 7 н/о н/о +29.7 +2.9 18 +28 +28 жарко 1008.1 982.7
16 16.12 В 7 н/о н/о +28.4 +2.6 19 +26 +26 жарко 1007.6 982.2
17 16.12 В 7 н/о н/о +27.7 +2.0 19 +26 +26 жарко 1007.2 981.8
18 16.12 В 8 н/о н/о +27.7 +1.2 18 +26 +26 жарко 1006.7 981.3
20 16.12 СВ 7 н/о н/о +25.9 +0.5 19 +24 +24 комфорт 1007.5 982.1
19 16.12 В 7 н/о н/о +26.8 +0.5 18 +25 +25 комфорт 1006.9 981.5
21 16.12 СВ 8 н/о н/о +27.3 +0.1 17 +25 +25 комфорт 1008.1 982.7
22 16.12 СВ 9 н/о н/о +30.1 -0.3 14 +27 +27 жарко 1008.3 982.9
23 16.12 СВ 9 н/о н/о +32.6 +0.6 13 +29 +29 жарко 1008.4 983.0
00 17.12 СВ 10 н/о н/о +35.0 +1.4 12 +32 +32 жарко 1008.3 982.9
02 17.12 С 11 н/о н/о +41.8 +5.3 11 +39 +39 очень
жарко
1007.1 981.7
01 17.12 С 10 н/о н/о +39.2 -7.3 5 +35 +35 очень
жарко
1007.8 982.4
03 17.12 С 11 н/о н/о +42.7 +4.6 10 +40 +40 очень
жарко
1005.9 980.5
04 17.12 С 10 н/о н/о +43.3 +6.5 11 +41 +41 опасность
перегрева
1004.9 979.6
05 17.12 СЗ 9 н/о н/о +43.7 +6.8 11 +41 +41 опасность
перегрева
1004.0 978.7
06 17.12 С 9 н/о н/о +43.2 +5.0 10 +40 +40 очень
жарко
1003.2 977.9
08 17.12 С 8 н/о н/о +43.4 +5.2 10 +41 +41 опасность
перегрева
1002.1 976.8
07 17.12 СЗ 7 н/о н/о +43.5 +5.2 10 +41 +41 опасность
перегрева
1002.4 977.1
09 17.12 С 8 н/о н/о +42.5 +4.5 10 +39 +39 очень
жарко
1002.1 976.8
10 17.12 С 6 н/о н/о +40.2 +5.4 12 +37 +37 очень
жарко
1002.4 977.1
11 17.12 С 5 н/о н/о +37.7 +4.6 13 +35 +35 очень
жарко
1002.6 977.3
12 17.12 С 5 н/о н/о +35.6 +4.0 14 +33 +33 жарко 1002.8 977.5
14 17.12 С 5 н/о н/о +32.6 +3.5 16 +30 +30 жарко 1002.8 977.5
13 17.12 С 5 н/о н/о +33.9 +3.7 15 +31 +31 жарко 1002.9 977.6
15 17.12 С 5 н/о н/о +31.7 +2.8 16 +29 +29 жарко 1002.2 976.9
16 17.12 С 5 н/о н/о +29.7 +2.1 17 +27 +27 жарко 1001.6 976.3
17 17.12 С 5 н/о н/о +29.1 +1.6 17 +27 +27 жарко 1001.2 976.0
18 17.12 С 6 н/о н/о +29.0 +2.3 18 +27 +27 жарко 1001.2 976.0
20 17.12 СВ 6 н/о н/о +28.9 +2.2 18 +27 +27 жарко 1001.4 976.1
19 17.12 С 5 н/о н/о +29.2 +1.7 17 +27 +27 жарко 1001.1 975.9
21 17.12 С 7 н/о н/о +32.3 +3.3 16 +30 +30 жарко 1002.5 977.2
22 17.12 СВ 6 н/о н/о +31.9 +3.8 17 +29 +29 жарко 1002.4 977.1
23 17.12 С 6 н/о н/о +35.7 +5.1 15 +33 +33 жарко 1002.6 977.3
00 18.12 З 5 н/о н/о +38.9 +7.6 15 +37 +37 очень
жарко
1002.1 976.8
02 18.12 СЗ 6 н/о н/о +41.3 -5.8 5 +37 +37 очень
жарко
1001.0 975.8
01 18.12 СЗ 4 н/о н/о +40.1 +8.5 15 +38 +38 очень
жарко
1002.0 976.7
03 18.12 С 10 н/о н/о +42.5 +8.3 13 +40 +40 очень
жарко
999.9 974.7
04 18.12 С 14 н/о н/о +44.2 +9.6 13 +43 +43 опасность
перегрева
998.5 973.3
05 18.12 С 14 н/о н/о +44.3 +9.7 13 +43 +43 опасность
перегрева
997.2 972.1
06 18.12 С 13 н/о н/о +42.6 +9.5 14 +41 +41 опасность
перегрева
996.1 971.0
08 18.12 С 4 н/о н/о +34.0 +5.5 17 +32 +32 жарко 995.9 970.8
07 18.12 С 8 н/о н/о +32.7 +18.8 44 +38 +38 очень
душно
997.5 972.3

 

Местоположение метеостанции Coober Pedy Airport (Южная Австралия, Австралия): широта -29.03 долгота 134.71 высота над уровнем моря 226 м.

В архиве по умолчанию представлена погода в Coober Pedy Airport за последнюю неделю. Архивные данные за месяц целиком и за предыдущие месяцы, начиная с января 2011 года, Вы можете получить, выбрав интересующий диапазон дат из раскрывающегося списка и нажав кнопку "Ввод!".

Внимание! Время в таблицах - всемирное. Для получения местного времени необходимо прибавить поправку, которая в Coober Pedy Airport равна 9.5 ч.

Смотрите также архив погоды в соседних городах и на ближайших метеорологических станциях:

Погода в Oodnadatta Airport (Южная Австралия, Австралия) (180 км)
Погода в Tarcoola Aero (Южная Австралия, Австралия) (188 км)
Погода в Olympic Dam Aerodrome (Южная Австралия, Австралия) (264 км)
Погода в Woomera Aerodrome (Южная Австралия, Австралия) (311 км)
Погода в Marree Aero (Южная Австралия, Австралия) (332 км)
Погода в Ceduna Amo (Южная Австралия, Австралия) (358 км)
Погода в Pukatja (Южная Австралия, Австралия) (395 км)
Погода в Leigh Creek Airport (Южная Австралия, Австралия) (398 км)
Погода в Minnipa Pirsa (Южная Австралия, Австралия) (427 км)
Погода в Wudinna Aero (Южная Австралия, Австралия) (453 км)

Пояснения к столбцам:

Ветер - указаны скорость ветра в м/с - средняя за 10 мин, порывы в срок и между сроками (в фигурных скобках) и направление, откуда дует ветер: С - северный, СВ - северо-восточный, В - восточный, ЮВ - юго-восточный, Ю - южный, ЮЗ - юго-западный, З - западный, СЗ - северо-западный.
Видимость - горизонтальная дальность видимости в метрах или километрах. При видимости от 1 до 10 км при отсутствии осадков обычно наблюдается дымка, при ухудшении видимости до 1 км и менее - туман. В сухую погоду видимость может ухудшаться дымом, пылью или мглою.
Явления - указаны атмосферные явления, наблюдавшиеся в срок или в последний час перед сроком; фигурными скобками обозначены явления, наблюдавшиеся между сроками (за 1-3 часа до срока); квадратными скобками обозначены град или гололедные отложения с указанием их диаметра в мм.
Облачность - указаны через наклонную черту общая и нижняя облачность в баллах и высота нижней границы облаков в метрах; квадратными скобками обозначены формы облаков: Ci - перистые, Cs - перисто-слоистые, Cc - перисто-кучевые, Ac - высококучевые, As - высокослоистые, Sc - слоисто-кучевые, Ns - слоисто-дождевые, Cu - кучевые, Cb - кучево-дождевые. Подробнее классификацию облаков см. в Атласе облаков (PDF).
T - Температура воздуха - температура, измеренная на высоте 2 м над землей.
Td - Температура точки росы - температура, при понижении до которой содержащийся в воздухе водяной пар достигнет насыщения.
f - Относительная влажность воздуха - влажноcть воздуха, измеренная на высоте 2 м над землей.
Te - Эффективная температура - температура, которую ощущает одетый по сезону человек в тени. Характеристика душности погоды. При расчете учитывается влияние влажности воздуха и скорости ветра на теплоощущения человека.
Tes - Эффективная температура на солнце - температура, которую ощущает человек, с поправкой на солнечный нагрев. Характеристика знойности погоды. Зависит от высоты солнца над горизонтом, облачности и скорости ветра. Ночью, в пасмурную погоду, а также при ветре 12 м/с и более поправка равна нулю.
P - Атмосферное давление - приведенное к уровню моря атмосферное давление.
Po - Атмосферное давление - измеренное на уровне метеостанции атмосферное давление.
Tmin - Минимальная температура - минимум температуры воздуха на высоте 2 м над землей.
Tmax - Максимальная температура - максимум температуры воздуха на высоте 2 м над землей.
R - Количество осадков - Количество выпавших осадков за период времени, мм. При наведении курсора мыши на число - период времени, за который выпало указанное количество осадков.
R24 - Количество осадков - Количество выпавших осадков за 24 часа, мм.
S - Снежный покров - Высота снежного покрова, см. При наведении курсора мыши на число - состояние снежного покрова и степень покрытия местности в баллах.